TimeCST,TemperatureF,Dew PointF,Humidity,Sea Level PressureIn,VisibilityMPH,Wind Direction,Wind SpeedMPH,Gust SpeedMPH,PrecipitationIn,Events,Conditions,WindDirDegrees,DateUTC
12:53 AM,36.0,26.1,67,30.03,10.0,North,4.6,-,N/A,,Clear,350,2012-11-30 06:53:00
1:53 AM,35.1,26.1,70,30.01,10.0,Calm,Calm,-,N/A,,Clear,0,2012-11-30 07:53:00
2:53 AM,28.9,23.0,78,30.02,10.0,SSW,8.1,-,N/A,,Clear,200,2012-11-30 08:53:00
3:53 AM,28.0,23.0,81,30.02,10.0,SW,9.2,-,N/A,,Clear,230,2012-11-30 09:53:00
4:53 AM,30.0,24.1,79,30.06,10.0,North,10.4,-,N/A,,Clear,10,2012-11-30 10:53:00
5:53 AM,34.0,26.1,73,30.07,10.0,NNE,4.6,-,N/A,,Clear,30,2012-11-30 11:53:00
6:53 AM,32.0,24.1,73,30.08,10.0,NNE,6.9,-,N/A,,Clear,30,2012-11-30 12:53:00
7:53 AM,32.0,24.1,73,30.11,10.0,NNE,6.9,-,N/A,,Clear,20,2012-11-30 13:53:00
8:53 AM,36.0,27.0,70,30.11,10.0,NNE,5.8,-,N/A,,Clear,20,2012-11-30 14:53:00
9:53 AM,42.1,28.0,58,30.10,10.0,ENE,10.4,-,N/A,,Clear,70,2012-11-30 15:53:00
10:53 AM,46.9,27.0,46,30.10,10.0,ENE,11.5,-,N/A,,Clear,70,2012-11-30 16:53:00
11:53 AM,50.0,28.0,43,30.08,10.0,ESE,5.8,-,N/A,,Clear,110,2012-11-30 17:53:00
12:53 PM,54.0,28.0,37,30.04,10.0,SE,8.1,-,N/A,,Clear,130,2012-11-30 18:53:00
1:53 PM,57.9,28.9,33,30.00,10.0,ESE,6.9,-,N/A,,Clear,110,2012-11-30 19:53:00
2:53 PM,61.0,28.9,30,29.97,10.0,ESE,8.1,-,N/A,,Clear,110,2012-11-30 20:53:00
3:53 PM,59.0,30.0,33,29.96,10.0,East,6.9,-,N/A,,Clear,90,2012-11-30 21:53:00
4:53 PM,52.0,30.0,43,29.98,9.0,East,8.1,-,N/A,,Clear,80,2012-11-30 22:53:00
5:53 PM,45.0,30.0,56,29.97,10.0,East,10.4,-,N/A,,Clear,100,2012-11-30 23:53:00
6:53 PM,45.0,33.1,63,29.99,10.0,ESE,9.2,-,N/A,,Clear,120,2012-12-01 00:53:00
7:53 PM,46.0,37.0,71,29.97,10.0,SE,10.4,-,N/A,,Clear,130,2012-12-01 01:53:00
8:53 PM,45.0,39.0,80,29.95,10.0,SSE,10.4,-,N/A,,Clear,150,2012-12-01 02:53:00
9:53 PM,46.9,42.1,83,29.91,8.0,SSE,10.4,-,N/A,,Clear,160,2012-12-01 03:53:00
10:53 PM,44.6,42.8,93,29.89,6.0,South,9.2,-,N/A,,Clear,170,2012-12-01 04:53:00
11:53 PM,44.6,42.8,93,29.88,4.0,South,9.2,-,N/A,,Clear,180,2012-12-01 05:53:00